UAL1815 KPHX-KLAX

Flight info

Callsign UAL1815
Flight time 1h 2m
Altitude 32000
Route KEENS3 WLVRN ESTWD HLYWD1
Aircraft B738/M-SDE2E3FGHIRWXY/LB1

Departure

Time 2026-04-23 00:19
Airport Phoenix Sky Harbor International Airport (KPHX)

Arrival

Time 2026-04-23 01:21
Airport Los Angeles International Airport (KLAX)
Time Latitude Longitude Altitude Speed Heading
2026-04-23 00:00 33.43704 -112.00810 1123 ft 0 kts 269°
2026-04-23 00:04 33.43704 -112.00808 1133 ft 1 kts 269°
2026-04-23 00:05 33.43704 -112.00787 1119 ft 3 kts 269°
2026-04-23 00:05 33.43704 -112.00768 1123 ft 3 kts 266°
2026-04-23 00:05 33.43708 -112.00747 1113 ft 3 kts 229°
2026-04-23 00:05 33.43722 -112.00736 1114 ft 3 kts 186°
2026-04-23 00:06 33.43736 -112.00735 1121 ft 1 kts 180°
2026-04-23 00:10 33.43734 -112.00723 1115 ft 2 kts 74°
2026-04-23 00:10 33.43746 -112.00723 1118 ft 2 kts 345°
2026-04-23 00:10 33.43762 -112.00732 1113 ft 4 kts 340°
2026-04-23 00:10 33.43787 -112.00735 1118 ft 3 kts 360°
2026-04-23 00:11 33.43810 -112.00732 1119 ft 3 kts
2026-04-23 00:11 33.43832 -112.00731 1118 ft 3 kts 359°
2026-04-23 00:11 33.43853 -112.00734 1117 ft 3 kts 349°
2026-04-23 00:11 33.43873 -112.00737 1118 ft 3 kts
2026-04-23 00:12 33.43888 -112.00724 1120 ft 3 kts 51°
2026-04-23 00:12 33.43891 -112.00703 1123 ft 3 kts 86°
2026-04-23 00:12 33.43891 -112.00683 1123 ft 2 kts 92°
2026-04-23 00:12 33.43889 -112.00664 1123 ft 2 kts 98°
2026-04-23 00:13 33.43892 -112.00640 1123 ft 4 kts 79°
2026-04-23 00:13 33.43898 -112.00607 1119 ft 4 kts 76°
2026-04-23 00:13 33.43901 -112.00575 1123 ft 4 kts 89°
2026-04-23 00:13 33.43900 -112.00543 1123 ft 4 kts 93°
2026-04-23 00:14 33.43899 -112.00508 1123 ft 6 kts 91°
2026-04-23 00:14 33.43899 -112.00455 1123 ft 6 kts 88°
2026-04-23 00:14 33.43902 -112.00401 1123 ft 9 kts 86°
2026-04-23 00:14 33.43905 -112.00276 1123 ft 20 kts 90°
2026-04-23 00:15 33.43905 -112.00110 1123 ft 20 kts 89°
2026-04-23 00:15 33.43907 -111.99953 1123 ft 19 kts 91°
2026-04-23 00:15 33.43904 -111.99798 1123 ft 18 kts 88°
2026-04-23 00:15 33.43905 -111.99652 1123 ft 17 kts 91°
2026-04-23 00:16 33.43902 -111.99512 1123 ft 17 kts 90°
2026-04-23 00:16 33.43904 -111.99377 1123 ft 16 kts 89°
2026-04-23 00:16 33.43898 -111.99250 1123 ft 15 kts 119°
2026-04-23 00:16 33.43802 -111.99224 1118 ft 15 kts 180°
2026-04-23 00:17 33.43703 -111.99231 1120 ft 14 kts 186°
2026-04-23 00:17 33.43610 -111.99239 1118 ft 13 kts 171°
2026-04-23 00:17 33.43520 -111.99226 1119 ft 13 kts 177°
2026-04-23 00:17 33.43432 -111.99236 1119 ft 13 kts 192°
2026-04-23 00:18 33.43347 -111.99245 1118 ft 12 kts 182°
2026-04-23 00:18 33.43263 -111.99246 1121 ft 12 kts 178°
2026-04-23 00:18 33.43190 -111.99280 1121 ft 13 kts 221°
2026-04-23 00:18 33.43125 -111.99358 1120 ft 13 kts 227°
2026-04-23 00:19 33.43101 -111.99539 1117 ft 55 kts 270°
2026-04-23 00:19 33.43104 -112.00385 1124 ft 145 kts 270°
2026-04-23 00:19 33.43108 -112.01777 1684 ft 181 kts 271°
2026-04-23 00:19 33.43112 -112.03395 2459 ft 201 kts 267°
2026-04-23 00:20 33.42981 -112.05055 3466 ft 198 kts 260°
2026-04-23 00:20 33.42649 -112.06670 4233 ft 200 kts 252°
2026-04-23 00:20 33.42175 -112.08212 5013 ft 205 kts 250°
2026-04-23 00:20 33.41709 -112.09966 5306 ft 239 kts 254°
2026-04-23 00:21 33.41242 -112.11972 5931 ft 256 kts 253°
2026-04-23 00:21 33.40700 -112.14035 6878 ft 257 kts 251°
2026-04-23 00:21 33.40117 -112.16081 7582 ft 261 kts 250°
2026-04-23 00:21 33.39510 -112.18133 7889 ft 264 kts 250°
2026-04-23 00:22 33.39179 -112.20333 8252 ft 275 kts 269°
2026-04-23 00:22 33.39416 -112.22602 9405 ft 271 kts 277°
2026-04-23 00:22 33.39756 -112.24830 10356 ft 276 kts 278°
2026-04-23 00:22 33.40120 -112.27183 10699 ft 302 kts 278°
2026-04-23 00:23 33.40516 -112.29765 10959 ft 326 kts 278°
2026-04-23 00:23 33.40929 -112.32477 11636 ft 334 kts 278°
2026-04-23 00:23 33.41344 -112.35215 12515 ft 335 kts 278°
2026-04-23 00:23 33.41753 -112.37942 13401 ft 337 kts 278°
2026-04-23 00:24 33.42166 -112.40718 14175 ft 341 kts 278°
2026-04-23 00:24 33.42586 -112.43555 14941 ft 343 kts 278°
2026-04-23 00:24 33.42997 -112.46341 15750 ft 344 kts 278°
2026-04-23 00:24 33.43413 -112.49163 16543 ft 346 kts 278°
2026-04-23 00:25 33.43832 -112.52016 17276 ft 349 kts 278°
2026-04-23 00:25 33.44254 -112.54889 18042 ft 351 kts 278°
2026-04-23 00:25 33.44649 -112.57591 18677 ft 353 kts 278°
2026-04-23 00:25 33.45051 -112.60502 19307 ft 355 kts 274°
2026-04-23 00:26 33.45194 -112.63464 19943 ft 357 kts 269°
2026-04-23 00:26 33.45193 -112.66444 20612 ft 359 kts 268°
2026-04-23 00:26 33.45175 -112.69441 21244 ft 361 kts 268°
2026-04-23 00:26 33.45184 -112.72460 21832 ft 365 kts 269°
2026-04-23 00:27 33.45215 -112.75507 22429 ft 367 kts 269°
2026-04-23 00:27 33.45271 -112.78573 23025 ft 370 kts 272°
2026-04-23 00:27 33.45779 -112.81626 23559 ft 379 kts 285°
2026-04-23 00:27 33.46747 -112.84579 24043 ft 382 kts 288°
2026-04-23 00:28 33.47795 -112.87521 24530 ft 384 kts 289°
2026-04-23 00:28 33.48859 -112.90451 25121 ft 382 kts 289°
2026-04-23 00:28 33.49910 -112.93354 25857 ft 377 kts 289°
2026-04-23 00:28 33.50930 -112.96195 26547 ft 374 kts 289°
2026-04-23 00:29 33.51945 -112.99052 27162 ft 372 kts 289°
2026-04-23 00:29 33.52949 -113.01902 27778 ft 371 kts 289°
2026-04-23 00:29 33.53945 -113.04744 28457 ft 368 kts 289°
2026-04-23 00:29 33.54931 -113.07566 29126 ft 365 kts 289°
2026-04-23 00:30 33.55908 -113.10367 29786 ft 364 kts 289°
2026-04-23 00:30 33.56879 -113.13155 30383 ft 360 kts 289°
2026-04-23 00:30 33.57835 -113.15900 31133 ft 351 kts 289°
2026-04-23 00:30 33.58771 -113.18591 31651 ft 348 kts 288°
2026-04-23 00:31 33.59695 -113.21249 31932 ft 344 kts 288°
2026-04-23 00:31 33.61538 -113.26571 31974 ft 345 kts 288°
2026-04-23 00:32 33.63374 -113.31875 32010 ft 343 kts 288°
2026-04-23 00:32 33.65205 -113.37175 32029 ft 343 kts 288°
2026-04-23 00:33 33.67031 -113.42466 32045 ft 343 kts 288°
2026-04-23 00:33 33.68824 -113.47671 32055 ft 344 kts 288°
2026-04-23 00:34 33.70655 -113.52992 32056 ft 344 kts 288°
2026-04-23 00:34 33.72484 -113.58318 32052 ft 346 kts 288°
2026-04-23 00:35 33.74316 -113.63662 32054 ft 346 kts 288°
2026-04-23 00:35 33.76136 -113.68980 32028 ft 347 kts 288°
2026-04-23 00:36 33.77970 -113.74346 32014 ft 347 kts 288°
2026-04-23 00:36 33.79802 -113.79714 31997 ft 347 kts 288°
2026-04-23 00:37 33.81628 -113.85092 31963 ft 347 kts 288°
2026-04-23 00:37 33.83449 -113.90475 31945 ft 347 kts 288°
2026-04-23 00:38 33.85266 -113.95854 31945 ft 346 kts 288°
2026-04-23 00:38 33.87073 -114.01213 31940 ft 346 kts 288°
2026-04-23 00:39 33.88870 -114.06546 31939 ft 345 kts 288°
2026-04-23 00:39 33.90625 -114.11918 31938 ft 343 kts 283°
2026-04-23 00:40 33.91664 -114.17514 31936 ft 342 kts 278°
2026-04-23 00:40 33.92560 -114.23144 31937 ft 343 kts 278°
2026-04-23 00:41 33.93474 -114.28747 31938 ft 343 kts 279°
2026-04-23 00:41 33.94416 -114.34394 31936 ft 344 kts 279°
2026-04-23 00:42 33.95367 -114.40053 31929 ft 345 kts 279°
2026-04-23 00:42 33.96332 -114.45798 31940 ft 357 kts 279°
2026-04-23 00:43 33.97337 -114.51805 31941 ft 373 kts 279°
2026-04-23 00:43 33.98375 -114.58001 31934 ft 378 kts 279°
2026-04-23 00:44 33.99407 -114.64182 31935 ft 379 kts 279°
2026-04-23 00:44 34.00441 -114.70398 31932 ft 378 kts 279°
2026-04-23 00:45 34.01467 -114.76588 31932 ft 375 kts 279°
2026-04-23 00:45 34.02481 -114.82731 31935 ft 372 kts 279°
2026-04-23 00:46 34.03483 -114.88825 31937 ft 369 kts 279°
2026-04-23 00:46 34.04480 -114.94899 31945 ft 368 kts 279°
2026-04-23 00:47 34.05472 -115.00966 31949 ft 369 kts 279°
2026-04-23 00:47 34.06463 -115.07047 31945 ft 370 kts 279°
2026-04-23 00:48 34.07451 -115.13114 31944 ft 371 kts 279°
2026-04-23 00:48 34.08444 -115.19239 31946 ft 372 kts 279°
2026-04-23 00:49 34.09436 -115.25377 31948 ft 374 kts 279°
2026-04-23 00:49 34.10431 -115.31554 31943 ft 375 kts 279°
2026-04-23 00:50 34.11422 -115.37724 31950 ft 375 kts 279°
2026-04-23 00:50 34.12244 -115.42859 31950 ft 375 kts 279°
2026-04-23 00:51 34.13229 -115.49037 31957 ft 374 kts 279°
2026-04-23 00:51 34.14212 -115.55215 31958 ft 375 kts 279°
2026-04-23 00:52 34.15191 -115.61391 31968 ft 374 kts 279°
2026-04-23 00:52 34.16159 -115.67557 31961 ft 373 kts 277°
2026-04-23 00:52 34.16288 -115.70682 31964 ft 372 kts 266°
2026-04-23 00:53 34.16022 -115.73780 31965 ft 371 kts 264°
2026-04-23 00:53 34.15367 -115.79927 31978 ft 370 kts 263°
2026-04-23 00:54 34.14735 -115.86093 32000 ft 370 kts 264°
2026-04-23 00:54 34.14132 -115.92254 32017 ft 369 kts 264°
2026-04-23 00:55 34.13531 -115.98408 32029 ft 369 kts 264°
2026-04-23 00:55 34.12928 -116.04565 32038 ft 369 kts 264°
2026-04-23 00:56 34.12339 -116.10559 32013 ft 344 kts 264°
2026-04-23 00:56 34.12057 -116.13414 31426 ft 344 kts 264°
2026-04-23 00:56 34.11769 -116.16336 30249 ft 360 kts 264°
2026-04-23 00:56 34.11467 -116.19404 29023 ft 373 kts 264°
2026-04-23 00:57 34.11157 -116.22524 28316 ft 373 kts 264°
2026-04-23 00:57 34.10854 -116.25576 27812 ft 368 kts 264°
2026-04-23 00:57 34.10549 -116.28619 27280 ft 363 kts 264°
2026-04-23 00:57 34.10243 -116.31634 26713 ft 360 kts 263°
2026-04-23 00:58 34.09926 -116.34625 26142 ft 358 kts 263°
2026-04-23 00:58 34.09606 -116.37593 25594 ft 356 kts 263°
2026-04-23 00:58 34.09289 -116.40539 25039 ft 353 kts 263°
2026-04-23 00:58 34.08974 -116.43464 24526 ft 350 kts 263°
2026-04-23 00:59 34.08662 -116.46365 24021 ft 347 kts 263°
2026-04-23 00:59 34.08351 -116.49243 23534 ft 345 kts 263°
2026-04-23 00:59 34.08044 -116.52102 22977 ft 342 kts 263°
2026-04-23 00:59 34.07738 -116.54938 22434 ft 339 kts 263°
2026-04-23 01:00 34.07434 -116.57739 21878 ft 335 kts 263°
2026-04-23 01:00 34.07143 -116.60528 21322 ft 334 kts 264°
2026-04-23 01:00 34.06884 -116.63298 20791 ft 332 kts 264°
2026-04-23 01:00 34.06633 -116.66057 20317 ft 329 kts 264°
2026-04-23 01:01 34.06385 -116.68786 19814 ft 326 kts 265°
2026-04-23 01:01 34.06142 -116.71455 19299 ft 324 kts 265°
2026-04-23 01:01 34.05890 -116.74182 18832 ft 321 kts 265°
2026-04-23 01:01 34.05644 -116.76812 18359 ft 319 kts 265°
2026-04-23 01:02 34.05395 -116.79473 17782 ft 318 kts 264°
2026-04-23 01:02 34.05149 -116.82111 17227 ft 317 kts 265°
2026-04-23 01:02 34.04900 -116.84751 16714 ft 316 kts 265°
2026-04-23 01:02 34.04652 -116.87380 16204 ft 314 kts 265°
2026-04-23 01:03 34.04391 -116.89992 15729 ft 313 kts 264°
2026-04-23 01:03 34.04059 -116.92588 15344 ft 310 kts 262°
2026-04-23 01:03 34.03721 -116.95075 15237 ft 290 kts 262°
2026-04-23 01:03 34.03409 -116.97405 15064 ft 274 kts 263°
2026-04-23 01:04 34.03112 -116.99665 14636 ft 274 kts 263°
2026-04-23 01:04 34.02816 -117.01945 14219 ft 275 kts 263°
2026-04-23 01:04 34.02258 -117.06481 13570 ft 272 kts 263°
2026-04-23 01:05 34.01994 -117.08732 13188 ft 271 kts 263°
2026-04-23 01:05 34.01733 -117.10959 12794 ft 272 kts 263°
2026-04-23 01:05 34.01467 -117.13214 12317 ft 274 kts 263°
2026-04-23 01:05 34.01194 -117.15531 12079 ft 281 kts 263°
2026-04-23 01:06 34.00912 -117.17905 12005 ft 289 kts 263°
2026-04-23 01:06 34.00622 -117.20332 11968 ft 293 kts 263°
2026-04-23 01:06 34.00331 -117.22772 11969 ft 295 kts 263°
2026-04-23 01:06 34.00037 -117.25225 11960 ft 295 kts 263°
2026-04-23 01:07 33.99743 -117.27672 11972 ft 296 kts 263°
2026-04-23 01:07 33.99448 -117.30133 11963 ft 296 kts 263°
2026-04-23 01:07 33.99155 -117.32589 11962 ft 296 kts 263°
2026-04-23 01:07 33.98867 -117.35041 11964 ft 296 kts 263°
2026-04-23 01:08 33.98580 -117.37498 11957 ft 295 kts 263°
2026-04-23 01:08 33.98296 -117.39909 11957 ft 291 kts 263°
2026-04-23 01:08 33.98017 -117.42283 11951 ft 281 kts 263°
2026-04-23 01:08 33.97746 -117.44572 11947 ft 272 kts 263°
2026-04-23 01:09 33.97481 -117.46811 11953 ft 270 kts 263°
2026-04-23 01:09 33.97303 -117.49061 11936 ft 269 kts 274°
2026-04-23 01:09 33.97608 -117.51295 11652 ft 272 kts 282°
2026-04-23 01:09 33.98026 -117.53533 11378 ft 274 kts 282°
2026-04-23 01:10 33.98444 -117.55763 11107 ft 271 kts 282°
2026-04-23 01:10 33.98852 -117.57977 10826 ft 268 kts 282°
2026-04-23 01:10 33.99246 -117.60156 10557 ft 265 kts 282°
2026-04-23 01:10 33.99632 -117.62321 10292 ft 264 kts 282°
2026-04-23 01:11 34.00008 -117.64446 10024 ft 261 kts 282°
2026-04-23 01:11 34.00384 -117.66576 9734 ft 259 kts 282°
2026-04-23 01:11 34.00660 -117.68703 9441 ft 256 kts 270°
2026-04-23 01:11 34.00484 -117.70834 9195 ft 256 kts 264°
2026-04-23 01:12 34.00254 -117.72971 8932 ft 258 kts 264°
2026-04-23 01:12 34.00031 -117.75116 8656 ft 258 kts 264°
2026-04-23 01:12 33.99816 -117.77262 8394 ft 258 kts 264°
2026-04-23 01:12 33.99603 -117.79411 8137 ft 259 kts 264°
2026-04-23 01:13 33.99393 -117.81546 7875 ft 260 kts 264°
2026-04-23 01:13 33.99182 -117.83706 7604 ft 260 kts 264°
2026-04-23 01:13 33.98971 -117.85868 7344 ft 259 kts 264°
2026-04-23 01:13 33.98760 -117.88027 7074 ft 260 kts 264°
2026-04-23 01:14 33.98547 -117.90196 6802 ft 260 kts 264°
2026-04-23 01:14 33.98334 -117.92365 6541 ft 261 kts 264°
2026-04-23 01:14 33.98121 -117.94533 6251 ft 260 kts 264°
2026-04-23 01:14 33.97909 -117.96696 5982 ft 259 kts 264°
2026-04-23 01:15 33.97698 -117.98847 5717 ft 259 kts 264°
2026-04-23 01:15 33.97484 -118.01002 5437 ft 258 kts 264°
2026-04-23 01:15 33.97273 -118.03145 5179 ft 257 kts 264°
2026-04-23 01:15 33.97062 -118.05275 4907 ft 256 kts 264°
2026-04-23 01:16 33.96850 -118.07407 4649 ft 254 kts 264°
2026-04-23 01:16 33.96640 -118.09518 4385 ft 253 kts 264°
2026-04-23 01:16 33.96446 -118.11609 4126 ft 248 kts 265°
2026-04-23 01:16 33.96267 -118.13644 3860 ft 240 kts 264°
2026-04-23 01:17 33.96075 -118.15581 3704 ft 229 kts 264°
2026-04-23 01:17 33.95883 -118.17439 3494 ft 221 kts 264°
2026-04-23 01:17 33.95694 -118.19255 3223 ft 217 kts 263°
2026-04-23 01:17 33.95507 -118.21049 2941 ft 214 kts 264°
2026-04-23 01:18 33.95326 -118.22806 2657 ft 206 kts 264°
2026-04-23 01:18 33.95155 -118.24448 2394 ft 189 kts 264°
2026-04-23 01:18 33.94998 -118.25970 2150 ft 177 kts 264°
2026-04-23 01:18 33.94850 -118.27405 1927 ft 171 kts 264°
2026-04-23 01:19 33.94708 -118.28786 1691 ft 160 kts 264°
2026-04-23 01:19 33.94581 -118.30057 1502 ft 151 kts 263°
2026-04-23 01:19 33.94450 -118.31298 1261 ft 147 kts 263°
2026-04-23 01:19 33.94328 -118.32485 1029 ft 141 kts 263°
2026-04-23 01:20 33.94201 -118.33642 960 ft 144 kts 263°
2026-04-23 01:20 33.94084 -118.34867 690 ft 151 kts 264°
2026-04-23 01:20 33.93961 -118.36097 486 ft 142 kts 263°
2026-04-23 01:20 33.93846 -118.37230 318 ft 132 kts 262°
2026-04-23 01:21 33.93740 -118.38273 173 ft 124 kts 261°
2026-04-23 01:21 33.93628 -118.39307 113 ft 123 kts 262°
2026-04-23 01:21 33.93536 -118.40224 109 ft 92 kts 263°
2026-04-23 01:21 33.93484 -118.40729 111 ft 42 kts 263°
2026-04-23 01:22 33.93505 -118.41056 111 ft 38 kts 284°
2026-04-23 01:22 33.93539 -118.41210 104 ft 1 kts 286°
2026-04-23 01:22 33.93605 -118.41264 107 ft 15 kts 350°
2026-04-23 01:22 33.93709 -118.41277 106 ft 16 kts
2026-04-23 01:23 33.93824 -118.41238 99 ft 16 kts 31°
2026-04-23 01:23 33.93850 -118.41158 96 ft 11 kts 90°
2026-04-23 01:23 33.93854 -118.41070 97 ft 10 kts 82°
2026-04-23 01:23 33.93863 -118.40985 98 ft 10 kts 84°
2026-04-23 01:24 33.93870 -118.40902 97 ft 10 kts 84°
2026-04-23 01:24 33.93878 -118.40821 96 ft 10 kts 80°
2026-04-23 01:24 33.93889 -118.40743 96 ft 9 kts 81°
2026-04-23 01:24 33.93897 -118.40667 97 ft 9 kts 84°
2026-04-23 01:25 33.93903 -118.40592 98 ft 9 kts 85°
2026-04-23 01:25 33.93908 -118.40520 97 ft 9 kts 81°
2026-04-23 01:25 33.93921 -118.40450 97 ft 8 kts 76°
2026-04-23 01:25 33.93931 -118.40380 97 ft 9 kts 81°
2026-04-23 01:26 33.93944 -118.40310 97 ft 8 kts 77°
2026-04-23 01:26 33.93949 -118.40240 97 ft 8 kts 89°
2026-04-23 01:26 33.93944 -118.40173 97 ft 5 kts 94°
2026-04-23 01:26 33.93947 -118.40135 99 ft 5 kts 80°
2026-04-23 01:27 33.93954 -118.40095 98 ft 5 kts 75°
2026-04-23 01:27 33.93985 -118.40063 96 ft 7 kts 12°
2026-04-23 01:27 33.94040 -118.40069 97 ft 9 kts 351°
2026-04-23 01:27 33.94103 -118.40081 94 ft 10 kts 349°
2026-04-23 01:28 33.94134 -118.40087 96 ft 0 kts 351°
2026-04-23 01:28 33.94143 -118.40089 94 ft 3 kts 352°
2026-04-23 01:28 33.94173 -118.40093 94 ft 5 kts 355°
2026-04-23 01:28 33.94183 -118.40094 95 ft 0 kts 356°
2026-04-23 01:29 33.94185 -118.40094 96 ft 1 kts 356°
2026-04-23 01:29 33.94220 -118.40089 95 ft 7 kts 30°
2026-04-23 01:29 33.94228 -118.40080 94 ft 5 kts 44°
2026-04-23 01:29 33.94237 -118.40051 94 ft 0 kts 83°
2026-04-23 01:30 33.94237 -118.40048 94 ft 0 kts 81°
2026-04-23 01:30 33.94238 -118.40044 94 ft 0 kts 81°